London Gatwick, United Kingdom

2:08 PM BST on August 23, 2017 (GMT +0100)
Gatwick

Weather History for EGKK - November, 2012

Change the Weather History Date:

Friday, November 2, 2012

  Actual Average Record
Temperature  
Mean Temperature 44 °F -  
Max Temperature 50 °F 50 °F 62 °F (2005)
Min Temperature 37 °F 37 °F 24 °F (1997)
Degree Days  
Heating Degree Days 22    
Moisture  
Dew Point 37 °F    
Average Humidity 78    
Maximum Humidity 93    
Minimum Humidity 62    
Precipitation  
Precipitation 0.00 in 0.10 in - ()
Sea Level Pressure  
Sea Level Pressure 29.29 in    
Wind  
Wind Speed 6 mph ()    
Max Wind Speed 15 mph    
Max Gust Speed 24 mph    
Visibility 6.2 miles    
Events Rain    
Averages and records for this station are not official NWS values.
T = Trace of Precipitation, MM = Missing Value Source: Averaged Metar Reports

Daily Weather History Graph

Daily Weather History Graph

Search for Another Location

Airport or City:

Trip Planner

Search our weather history database for the weather conditions in past years. The results will help you decide how hot, cold, wet, or windy it might be!

Date:

Astronomy

Nov. 02, 2012 Rise Set
Actual Time 6:55 AM GMT 4:32 PM GMT
Civil Twilight 6:20 AM GMT 5:07 PM GMT
Nautical Twilight 5:41 AM GMT 5:46 PM GMT
Astronomical Twilight 5:02 AM GMT 6:24 PM GMT
Moon 6:51 PM GMT (11/2) 10:19 AM GMT (11/2)
Length of Visible Light 10h 46m
Length of Day
9h 36m
Waning Gibbous, 88% of the Moon is Illuminated
Nov 2
Waning Gibbous
Nov 7
Last Quarter
Nov 13
New
Nov 20
First Quarter
Nov 28
Full

Hourly Weather History & Observations

Time (GMT) Temp. Windchill Dew Point Humidity Pressure Visibility Wind Dir Wind Speed Gust Speed Precip Events Conditions
12:20 AM 42.8 °F 38.0 °F 35.6 °F 76% 29.15 in - SW 8.1 mph - N/A   Clear
12:50 AM 42.8 °F 37.5 °F 37.4 °F 81% 29.18 in - SW 9.2 mph - N/A   Clear
1:20 AM 42.8 °F 38.0 °F 37.4 °F 81% 29.18 in 6.2 mi SW 8.1 mph - N/A   Partly Cloudy
1:50 AM 42.8 °F 36.6 °F 37.4 °F 81% 29.18 in - SW 11.5 mph - N/A   Clear
2:20 AM 42.8 °F 36.6 °F 37.4 °F 81% 29.21 in - WSW 11.5 mph - N/A   Clear
2:50 AM 42.8 °F 37.0 °F 37.4 °F 81% 29.21 in - WSW 10.4 mph - N/A   Clear
3:20 AM 42.8 °F 37.5 °F 37.4 °F 81% 29.21 in - WSW 9.2 mph - N/A   Clear
3:50 AM 41.0 °F 36.4 °F 37.4 °F 87% 29.24 in - SW 6.9 mph - N/A   Clear
4:20 AM 41.0 °F 36.4 °F 35.6 °F 81% 29.24 in - WSW 6.9 mph - N/A   Clear
4:50 AM 41.0 °F 39.0 °F 35.6 °F 81% 29.24 in - WSW 3.5 mph - N/A   Clear
5:20 AM 39.2 °F - 35.6 °F 87% 29.24 in - Variable 2.3 mph - N/A   Clear
5:50 AM 39.2 °F - 35.6 °F 87% 29.24 in - Calm Calm - N/A   Clear
6:20 AM 37.4 °F - 35.6 °F 93% 29.24 in - Calm Calm - N/A   Clear
6:50 AM 37.4 °F - 35.6 °F 93% 29.24 in 6.2 mi Calm Calm - N/A   Partly Cloudy
7:20 AM 39.2 °F 35.9 °F 35.6 °F 87% 29.24 in 6.2 mi Variable 4.6 mph - N/A   Partly Cloudy
7:50 AM 41.0 °F 38.0 °F 37.4 °F 87% 29.27 in 6.2 mi SSW 4.6 mph - N/A   Partly Cloudy
8:20 AM 42.8 °F 39.3 °F 37.4 °F 81% 29.27 in 6.2 mi South 5.8 mph - N/A   Partly Cloudy
8:50 AM 44.6 °F 42.2 °F 39.2 °F 81% 29.27 in 6.2 mi Variable 4.6 mph - N/A   Partly Cloudy
9:20 AM 46.4 °F 42.4 °F 39.2 °F 76% 29.27 in 6.2 mi SSW 8.1 mph - N/A   Partly Cloudy
9:50 AM 46.4 °F 42.4 °F 37.4 °F 71% 29.27 in 6.2 mi SSW 8.1 mph - N/A   Partly Cloudy
10:20 AM 46.4 °F 41.1 °F 37.4 °F 71% 29.27 in 6.2 mi SW 11.5 mph - N/A   Partly Cloudy
10:50 AM 46.4 °F 42.4 °F 37.4 °F 71% 29.27 in 6.2 mi SW 8.1 mph - N/A   Partly Cloudy
11:20 AM 48.2 °F - 39.2 °F 71% 29.27 in 6.2 mi SSW 8.1 mph - N/A   Partly Cloudy
11:50 AM 50.0 °F - 39.2 °F 66% 29.27 in 6.2 mi SW 9.2 mph - N/A   Partly Cloudy
12:20 PM 50.0 °F - 37.4 °F 62% 29.27 in 6.2 mi SW 11.5 mph - N/A   Partly Cloudy
12:50 PM 50.0 °F - 37.4 °F 62% 29.27 in 6.2 mi WSW 12.7 mph 24.2 mph N/A   Scattered Clouds
1:20 PM 50.0 °F - 37.4 °F 62% 29.27 in 6.2 mi SW 12.7 mph - N/A   Scattered Clouds
1:50 PM 48.2 °F - 39.2 °F 71% 29.27 in 6.2 mi SW 15.0 mph - N/A Rain Light Rain Showers
2:20 PM 46.4 °F 41.9 °F 39.2 °F 76% 29.27 in 6.2 mi WSW 9.2 mph - N/A   Mostly Cloudy
2:50 PM 50.0 °F - 39.2 °F 66% 29.27 in 6.2 mi West 8.1 mph - N/A   Partly Cloudy
3:20 PM 48.2 °F - 37.4 °F 66% 29.30 in 6.2 mi West 9.2 mph - N/A   Partly Cloudy
3:50 PM 46.4 °F 41.5 °F 37.4 °F 71% 29.30 in 6.2 mi WSW 10.4 mph - N/A   Partly Cloudy
4:20 PM 46.4 °F 42.9 °F 35.6 °F 66% 29.33 in 6.2 mi WSW 6.9 mph - N/A   Partly Cloudy
4:50 PM 44.6 °F 41.4 °F 35.6 °F 71% 29.33 in 6.2 mi WSW 5.8 mph - N/A   Partly Cloudy
5:20 PM 44.6 °F 42.2 °F 35.6 °F 71% 29.33 in - SSW 4.6 mph - N/A   Clear
5:50 PM 42.8 °F 40.1 °F 35.6 °F 76% 29.36 in - SSW 4.6 mph - N/A   Clear
6:20 PM 41.0 °F 39.0 °F 35.6 °F 81% 29.36 in - South 3.5 mph - N/A   Clear
6:50 PM 42.8 °F 39.3 °F 35.6 °F 76% 29.36 in - SW 5.8 mph - N/A   Clear
7:20 PM 41.0 °F 38.0 °F 35.6 °F 81% 29.39 in - South 4.6 mph - N/A   Clear
7:50 PM 41.0 °F 36.4 °F 35.6 °F 81% 29.39 in - SSW 6.9 mph - N/A   Clear
8:20 PM 41.0 °F 38.0 °F 35.6 °F 81% 29.39 in - SSW 4.6 mph - N/A   Clear
8:50 PM 41.0 °F 38.0 °F 35.6 °F 81% 29.42 in - SSW 4.6 mph - N/A   Clear
9:20 PM 41.0 °F - 35.6 °F 81% 29.42 in - Calm Calm - N/A   Clear
9:50 PM 39.2 °F - 35.6 °F 87% 29.42 in - Calm Calm - N/A   Clear
10:20 PM 37.4 °F - 33.8 °F 87% 29.42 in - Calm Calm - N/A   Clear
10:50 PM 39.2 °F - 33.8 °F 81% 29.42 in - Calm Calm - N/A   Clear
11:20 PM 39.2 °F - 35.6 °F 87% 29.42 in - Calm Calm - N/A   Clear
11:50 PM 37.4 °F - 35.6 °F 93% 29.42 in - ESE 2.3 mph - N/A   Clear